Overview Statistics Trail Chart Weather Telemetry Raw packets
 

This is the latest recevied weather packets stored in our database for station/object N7ZAP. If no packets are shown the sender has not sent any weather packets the latest 10 day(s).

<< 67 68 69 70 71 72 73 >>
Time Temp. Humidity Pressure Rain* Wind** Luminosity Snow
1788214978 33.33° C 29% 1018.7 hPa 0 mm - - -
1788214673 33.33° C 27% 1018.7 hPa 0 mm - - -
1788214368 33.89° C 27% 1018.9 hPa 0 mm - - -
1788214063 33.89° C 26% 1018.8 hPa 0 mm - - -
1788213759 33.89° C 24% 1018.9 hPa 0 mm - - -
1788213458 35° C 23% 1018.9 hPa 0 mm - - -
1788213155 35.56° C 23% 1018.9 hPa 0 mm - - -
1788212851 35° C 24% 1019 hPa 0 mm - - -
1788212548 35° C 23% 1019.1 hPa 0 mm - - -
1788212256 34.44° C 24% 1019.2 hPa 0 mm - - -
1788211940 35° C 24% 1018.9 hPa 0 mm - - -
1788211635 35° C 24% 1019.1 hPa 0 mm - - -
1788211332 34.44° C 24% 1019.1 hPa 0 mm - - -
1788211030 35° C 24% 1019.2 hPa 0 mm - - -
1788210725 34.44° C 24% 1019.4 hPa 0 mm - - -
1788210425 34.44° C 24% 1019.7 hPa 0 mm - - -
1788210121 33.33° C 25% 1019.5 hPa 0 mm - - -
1788209820 33.89° C 25% 1019.7 hPa 0 mm - - -
1788209517 34.44° C 24% 1019.7 hPa 0 mm - - -
1788209217 34.44° C 24% 1019.9 hPa 0 mm - - -
1788208916 34.44° C 24% 1019.9 hPa 0 mm - - -
1788208610 34.44° C 25% 1019.9 hPa 0 mm - - -
1788208309 34.44° C 25% 1020.2 hPa 0 mm - - -
1788208008 33.33° C 26% 1020.3 hPa 0 mm - - -
1788207704 33.33° C 26% 1020.4 hPa 0 mm - - -

* Rain latest hour (hover to see other rain measurements)
** Current wind speed in m/s (hover to see current wind gust speed)